sampling_time,wmo_synop_id,msc_id,stn_nam,stn_elev,lat,long,stn_typ,date_tm,rpt_typ,result_time,crnt_buoy_lat,crnt_buoy_lat_qa_summary,crnt_buoy_long,crnt_buoy_long_qa_summary,avg_air_temp_pst10mts,avg_air_temp_pst10mts_qa_summary,avg_sea_sfc_temp_pst10mts,avg_sea_sfc_temp_pst10mts_qa_summary,avg_batry_volt_pst10mts,avg_batry_volt_pst10mts_qa_summary,avg_solr_panl_crnt_pst10mts,avg_solr_panl_crnt_pst10mts_qa_summary,avg_wtr_lvl_snsr_volt_pst10mts,avg_wtr_lvl_snsr_volt_pst10mts_qa_summary,avg_wave_hgt_pst20mts,avg_wave_hgt_pst20mts_qa_summary,pk_wave_hgt_pst20mts,pk_wave_hgt_pst20mts_qa_summary,sig_wave_pd_pst20mts,sig_wave_pd_pst20mts_qa_summary,sig_wave_hgt_pst20mts,sig_wave_hgt_pst20mts_qa_summary,avg_max_wave_hgt_pst20mts,avg_max_wave_hgt_pst20mts_qa_summary,avg_max_wave_pd_pst20mts,avg_max_wave_pd_pst20mts_qa_summary,avg_wave_pd_pst20mts,avg_wave_pd_pst20mts_qa_summary,pk_wave_pd_pst20mts,pk_wave_pd_pst20mts_qa_summary,avg_stn_pres_pst10mts,avg_stn_pres_pst10mts_qa_summary,avg_wnd_spd_pst10mts,avg_wnd_spd_pst10mts_qa_summary,avg_wnd_dir_pst10mts,avg_wnd_dir_pst10mts_qa_summary,max_avg_wnd_spd_pst10mts,max_avg_wnd_spd_pst10mts_qa_summary,wnd_snsr_vert_disp,wnd_snsr_vert_disp_qa_summary,pres_tend_char_pst3hrs,pres_tend_char_pst3hrs_data_flag,pres_tend_amt_pst3hrs,pres_tend_amt_pst3hrs_data_flag,avg_mslp_pst10mts,avg_mslp_pst10mts_data_flag,avg_stn_pres_pst10mts_1,avg_stn_pres_pst10mts_1_qa_summary,avg_stn_pres_pst10mts_2,avg_stn_pres_pst10mts_2_qa_summary,avg_wnd_spd_pst10mts_1,avg_wnd_spd_pst10mts_1_qa_summary,avg_wnd_spd_pst10mts_2,avg_wnd_spd_pst10mts_2_qa_summary,avg_wnd_dir_pst10mts_1,avg_wnd_dir_pst10mts_1_qa_summary,avg_wnd_dir_pst10mts_2,avg_wnd_dir_pst10mts_2_qa_summary,max_avg_wnd_spd_pst10mts_1,max_avg_wnd_spd_pst10mts_1_qa_summary,max_avg_wnd_spd_pst10mts_2,max_avg_wnd_spd_pst10mts_2_qa_summary
2021-10-19T00:00:00Z,44489,9302001,WEST CHEDABUCTO BAY,0,45.48687,-61.14100000000001,18,2021-10-19T00:00:00.000Z,108,2021-10-19T00:02:49.655Z,45.48715,100,-61.1413,100,12.6,100,14.9,100,12.6,100,0.0,100,3.6,100,0.4,100,1.2,100,7.2,100,0.6,100,0.8,100,7.4,100,5.6,100,8.0,100,999.6,100,16.2,100,269,100,19.8,100,5,100,1,1,1.3,1,999.6,1,999.6,100,999.6,100,16.2,100,15.5,100,269,100,273,100,19.8,100,19.1,100
2021-10-19T00:10:00Z,44489,9302001,WEST CHEDABUCTO BAY,0,45.48687,-61.14100000000001,18,2021-10-19T00:10:00.000Z,110,2021-10-19T00:12:49.804Z,,-1,,-1,13.2,100,15.6,100,12.6,100,0.0,100,3.6,100,,-1,,-1,,-1,,-1,,-1,,-1,,-1,,-1,999.6,100,18.0,100,273,100,20.9,100,5,100,1,1,1.1,1,999.6,1,999.6,100,999.6,100,18.0,100,17.3,100,273,100,277,100,20.9,100,20.5,100
2021-10-19T00:20:00Z,44489,9302001,WEST CHEDABUCTO BAY,0,45.48687,-61.14100000000001,18,2021-10-19T00:20:00.000Z,110,2021-10-19T00:22:55.178Z,45.48715,100,-61.14128,100,12.6,100,14.9,100,12.6,100,0.0,100,3.6,100,,-1,,-1,,-1,,-1,,-1,,-1,,-1,,-1,999.6,100,19.8,100,275,100,23.8,100,5,100,1,1,1.1,1,999.6,1,999.6,100,999.6,100,19.8,100,19.4,100,275,100,279,100,23.8,100,23.4,100
2021-10-19T00:30:00Z,44489,9302001,WEST CHEDABUCTO BAY,0,45.48687,-61.14100000000001,18,2021-10-19T00:30:00.000Z,110,2021-10-19T00:33:55.099Z,45.48717,100,-61.14128,100,12.4,100,14.9,100,12.6,100,0.0,100,3.6,100,,-1,,-1,,-1,,-1,,-1,,-1,,-1,,-1,999.6,100,20.2,100,275,100,23.8,100,5,100,1,1,0.8,1,999.6,1,999.6,100,999.6,100,20.2,100,19.4,100,275,100,279,100,23.8,100,23.4,100
2021-10-19T00:40:00Z,44489,9302001,WEST CHEDABUCTO BAY,0,45.48687,-61.14100000000001,18,2021-10-19T00:40:00.000Z,110,2021-10-19T00:43:53.693Z,45.48715,100,-61.14128,100,12.5,100,14.9,100,12.6,100,0.0,100,3.6,100,,-1,,-1,,-1,,-1,,-1,,-1,,-1,,-1,999.6,100,19.8,100,281,100,23.0,100,5,100,1,1,0.7,1,999.6,1,999.6,100,999.7,100,19.8,100,19.4,100,281,100,285,100,23.0,100,22.7,100
2021-10-19T00:50:00Z,44489,9302001,WEST CHEDABUCTO BAY,0,45.48687,-61.14100000000001,18,2021-10-19T00:50:00.000Z,110,2021-10-19T00:53:01.648Z,45.48715,100,-61.14127,100,12.6,100,14.9,100,12.6,100,0.0,100,3.6,100,,-1,,-1,,-1,,-1,,-1,,-1,,-1,,-1,999.6,100,21.2,100,282,100,24.8,100,5,100,1,1,0.7,1,999.6,1,999.6,100,999.7,100,21.2,100,20.9,100,282,100,286,100,24.8,100,23.8,100
2021-10-19T01:00:00Z,44489,9302001,WEST CHEDABUCTO BAY,0,45.48687,-61.14100000000001,18,2021-10-19T01:00:00.000Z,108,2021-10-19T01:02:57.833Z,45.48713,100,-61.1413,100,12.7,100,14.9,100,12.6,100,0.0,100,3.6,100,0.3,100,0.8,100,7.0,100,0.6,100,0.7,100,7.0,100,4.7,100,8.0,100,999.6,100,20.9,100,281,100,24.5,100,5,100,1,1,0.6,1,999.6,1,999.6,100,999.6,100,20.9,100,20.2,100,281,100,285,100,24.5,100,23.8,100
2021-10-19T01:10:00Z,44489,9302001,WEST CHEDABUCTO BAY,0,45.48687,-61.14100000000001,18,2021-10-19T01:10:00.000Z,110,2021-10-19T01:15:56.968Z,45.48715,100,-61.14127,100,12.7,100,14.9,100,12.6,100,0.0,100,3.6,100,,-1,,-1,,-1,,-1,,-1,,-1,,-1,,-1,999.6,100,20.5,100,281,100,23.4,100,5,100,1,1,0.5,1,999.6,1,999.6,100,999.7,100,20.5,100,20.2,100,281,100,285,100,23.4,100,23.0,100
2021-10-19T01:20:00Z,44489,9302001,WEST CHEDABUCTO BAY,0,45.48687,-61.14100000000001,18,2021-10-19T01:20:00.000Z,110,2021-10-19T01:23:10.257Z,45.48715,100,-61.14128,100,12.6,100,14.9,100,12.6,100,0.0,100,3.6,100,,-1,,-1,,-1,,-1,,-1,,-1,,-1,,-1,999.7,100,20.2,100,274,100,23.8,100,5,100,2,1,0.4,1,999.7,1,999.7,100,999.7,100,20.2,100,19.4,100,274,100,278,100,23.8,100,23.4,100
2021-10-19T01:30:00Z,44489,9302001,WEST CHEDABUCTO BAY,0,45.48687,-61.14100000000001,18,2021-10-19T01:30:00.000Z,110,2021-10-19T01:34:17.258Z,45.48715,100,-61.14128,100,12.6,100,14.9,100,12.6,100,0.0,100,3.6,100,,-1,,-1,,-1,,-1,,-1,,-1,,-1,,-1,999.8,100,19.4,100,268,100,22.7,100,5,100,3,1,0.4,1,999.8,1,999.8,100,999.8,100,19.4,100,18.7,100,268,100,272,100,22.7,100,22.3,100
2021-10-19T01:40:00Z,44489,9302001,WEST CHEDABUCTO BAY,0,45.48687,-61.14100000000001,18,2021-10-19T01:40:00.000Z,110,2021-10-19T01:44:10.809Z,45.48715,100,-61.14128,100,12.4,100,14.9,100,12.6,100,0.0,100,3.6,100,,-1,,-1,,-1,,-1,,-1,,-1,,-1,,-1,999.9,100,18.0,100,257,100,20.9,100,5,100,3,1,0.5,1,999.9,1,999.9,100,999.9,100,18.0,100,17.3,100,257,100,261,100,20.9,100,20.9,100
2021-10-19T01:50:00Z,44489,9302001,WEST CHEDABUCTO BAY,0,45.48687,-61.14100000000001,18,2021-10-19T01:50:00.000Z,110,2021-10-19T01:54:23.021Z,45.48715,100,-61.14128,100,12.0,100,14.9,100,12.6,100,0.0,100,3.6,100,,-1,,-1,,-1,,-1,,-1,,-1,,-1,,-1,999.9,100,20.2,100,251,100,23.8,100,5,100,3,1,0.4,1,999.9,1,999.9,100,999.9,100,20.2,100,19.4,100,251,100,255,100,23.8,100,23.8,100
2021-10-19T02:00:00Z,44489,9302001,WEST CHEDABUCTO BAY,0,45.48687,-61.14100000000001,18,2021-10-19T02:00:00.000Z,108,2021-10-19T02:03:18.619Z,45.48717,100,-61.14127,100,11.8,100,14.9,100,12.5,100,0.0,100,3.6,100,0.3,100,0.7,100,6.6,100,0.5,100,0.6,100,7.4,100,4.2,100,8.7,100,999.9,100,20.5,100,254,100,23.4,100,5,100,3,1,0.4,1,999.9,1,999.9,100,999.9,100,20.5,100,20.2,100,254,100,258,100,23.4,100,23.0,100
2021-10-19T02:10:00Z,44489,9302001,WEST CHEDABUCTO BAY,0,45.48687,-61.14100000000001,18,2021-10-19T02:10:00.000Z,110,2021-10-19T02:16:30.781Z,45.48715,100,-61.14127,100,11.8,100,14.9,100,12.6,100,0.0,100,3.6,100,,-1,,-1,,-1,,-1,,-1,,-1,,-1,,-1,999.9,100,22.3,100,253,100,25.9,100,5,100,3,1,0.4,1,999.9,1,999.9,100,999.9,100,22.3,100,21.6,100,253,100,257,100,25.9,100,25.6,100
2021-10-19T02:20:00Z,44489,9302001,WEST CHEDABUCTO BAY,0,45.48687,-61.14100000000001,18,2021-10-19T02:20:00.000Z,110,2021-10-19T02:24:28.424Z,45.48715,100,-61.14127,100,11.7,100,14.9,100,12.6,100,0.0,100,3.6,100,,-1,,-1,,-1,,-1,,-1,,-1,,-1,,-1,999.9,100,23.8,100,254,100,27.4,100,5,100,2,1,0.5,1,999.9,1,999.9,100,999.9,100,23.8,100,23.4,100,254,100,258,100,27.4,100,27.4,100
2021-10-19T02:30:00Z,44489,9302001,WEST CHEDABUCTO BAY,0,45.48687,-61.14100000000001,18,2021-10-19T02:30:00.000Z,110,2021-10-19T02:33:26.009Z,45.48718,100,-61.14128,100,11.5,100,14.9,100,12.6,100,0.0,100,3.6,100,,-1,,-1,,-1,,-1,,-1,,-1,,-1,,-1,1000.0,100,23.4,100,253,100,26.6,100,5,100,2,1,0.6,1,1000.0,1,1000.0,100,1000.0,100,23.4,100,23.0,100,253,100,257,100,26.6,100,26.3,100
2021-10-19T02:40:00Z,44489,9302001,WEST CHEDABUCTO BAY,0,45.48687,-61.14100000000001,18,2021-10-19T02:40:00.000Z,110,2021-10-19T02:43:39.350Z,45.48718,100,-61.14128,100,11.3,100,14.9,100,12.5,100,0.0,100,3.6,100,,-1,,-1,,-1,,-1,,-1,,-1,,-1,,-1,999.9,100,23.0,100,250,100,25.9,100,5,100,1,1,0.5,1,999.9,1,999.9,100,1000.0,100,23.0,100,22.3,100,250,100,254,100,25.9,100,25.9,100
2021-10-19T02:50:00Z,44489,9302001,WEST CHEDABUCTO BAY,0,45.48687,-61.14100000000001,18,2021-10-19T02:50:00.000Z,110,2021-10-19T02:53:39.387Z,45.4872,100,-61.14127,100,11.4,100,14.9,100,12.5,100,0.0,100,3.6,100,,-1,,-1,,-1,,-1,,-1,,-1,,-1,,-1,999.9,100,22.7,100,251,100,26.3,100,5,100,1,1,0.3,1,999.9,1,999.9,100,999.9,100,22.7,100,22.3,100,251,100,255,100,26.3,100,25.9,100
2021-10-19T03:00:00Z,44489,9302001,WEST CHEDABUCTO BAY,0,45.48687,-61.14100000000001,18,2021-10-19T03:00:00.000Z,108,2021-10-19T03:03:42.104Z,45.4872,100,-61.14127,100,11.3,100,14.9,100,12.5,100,0.0,100,3.6,100,0.3,100,0.8,100,5.2,100,0.4,100,0.6,100,6.3,100,3.5,100,7.1,100,1000.0,100,23.4,100,252,100,27.0,100,5,100,1,1,0.3,1,1000.0,1,1000.0,100,1000.0,100,23.4,100,23.0,100,252,100,256,100,27.0,100,27.0,100
2021-10-19T03:10:00Z,44489,9302001,WEST CHEDABUCTO BAY,0,45.48687,-61.14100000000001,18,2021-10-19T03:10:00.000Z,110,2021-10-19T03:15:40.683Z,45.48717,100,-61.14127,100,11.1,100,14.9,100,12.6,100,0.0,100,3.6,100,,-1,,-1,,-1,,-1,,-1,,-1,,-1,,-1,1000.0,100,22.7,100,255,100,27.7,100,5,100,3,1,0.4,1,1000.0,1,1000.0,100,1000.0,100,22.7,100,22.3,100,255,100,260,100,27.7,100,27.7,100
2021-10-19T03:20:00Z,44489,9302001,WEST CHEDABUCTO BAY,0,45.48687,-61.14100000000001,18,2021-10-19T03:20:00.000Z,110,2021-10-19T03:30:34.926Z,45.48713,100,-61.14125,100,11.0,100,14.9,100,12.6,100,0.0,100,3.6,100,,-1,,-1,,-1,,-1,,-1,,-1,,-1,,-1,1000.0,100,23.8,100,258,100,27.7,100,5,100,1,1,0.4,1,1000.0,1,1000.0,100,1000.0,100,23.8,100,23.4,100,258,100,262,100,27.7,100,27.4,100
2021-10-19T03:30:00Z,44489,9302001,WEST CHEDABUCTO BAY,0,45.48687,-61.14100000000001,18,2021-10-19T03:30:00.000Z,110,2021-10-19T03:40:36.672Z,45.48718,100,-61.14128,100,11.0,100,14.9,100,12.5,100,0.0,100,3.6,100,,-1,,-1,,-1,,-1,,-1,,-1,,-1,,-1,1000.0,100,23.8,100,262,100,28.8,100,5,100,1,1,0.4,1,1000.0,1,1000.0,100,1000.0,100,23.8,100,23.4,100,262,100,266,100,28.8,100,28.8,100
2021-10-19T03:40:00Z,44489,9302001,WEST CHEDABUCTO BAY,0,45.48687,-61.14100000000001,18,2021-10-19T03:40:00.000Z,110,2021-10-19T03:42:44.998Z,45.48717,100,-61.14128,100,10.9,100,14.9,100,12.5,100,0.0,100,3.6,100,,-1,,-1,,-1,,-1,,-1,,-1,,-1,,-1,1000.0,100,24.5,100,265,100,28.8,100,5,100,1,1,0.3,1,1000.0,1,1000.0,100,1000.0,100,24.5,100,24.1,100,265,100,269,100,28.8,100,28.4,100
2021-10-19T03:50:00Z,44489,9302001,WEST CHEDABUCTO BAY,0,45.48687,-61.14100000000001,18,2021-10-19T03:50:00.000Z,110,2021-10-19T03:52:47.584Z,45.48718,100,-61.14127,100,10.8,100,14.9,100,12.5,100,0.0,100,3.6,100,,-1,,-1,,-1,,-1,,-1,,-1,,-1,,-1,1000.0,100,23.0,100,262,100,27.4,100,5,100,1,1,0.4,1,1000.0,1,1000.0,100,1000.1,100,23.0,100,22.7,100,262,100,266,100,27.4,100,26.6,100
2021-10-19T04:00:00Z,44489,9302001,WEST CHEDABUCTO BAY,0,45.48687,-61.14100000000001,18,2021-10-19T04:00:00.000Z,108,2021-10-19T04:02:53.849Z,45.48717,100,-61.14128,100,10.8,100,14.8,100,12.5,100,0.0,100,3.6,100,0.3,100,1.1,100,5.3,100,0.5,100,0.7,100,6.8,100,3.7,100,7.7,100,1000.1,100,23.4,100,262,100,28.4,100,5,100,1,1,0.4,1,1000.1,1,1000.1,100,1000.1,100,23.4,100,23.0,100,262,100,266,100,28.4,100,28.1,100
2021-10-19T04:10:00Z,44489,9302001,WEST CHEDABUCTO BAY,0,45.48687,-61.14100000000001,18,2021-10-19T04:10:00.000Z,110,2021-10-19T04:17:07.027Z,45.48717,100,-61.14125,100,10.7,100,14.8,100,12.5,100,0.0,100,3.6,100,,-1,,-1,,-1,,-1,,-1,,-1,,-1,,-1,1000.1,100,24.5,100,265,100,29.9,100,5,100,1,1,0.5,1,1000.1,1,1000.1,100,1000.1,100,24.5,100,24.1,100,265,100,269,100,29.9,100,28.8,100
2021-10-19T04:20:00Z,44489,9302001,WEST CHEDABUCTO BAY,0,45.48687,-61.14100000000001,18,2021-10-19T04:20:00.000Z,110,2021-10-19T04:23:00.579Z,45.48717,100,-61.14127,100,10.6,100,14.8,100,12.5,100,0.0,100,3.6,100,,-1,,-1,,-1,,-1,,-1,,-1,,-1,,-1,1000.1,100,22.7,100,262,100,26.6,100,5,100,1,1,0.4,1,1000.1,1,1000.1,100,1000.1,100,22.7,100,22.3,100,262,100,266,100,26.6,100,25.9,100
2021-10-19T04:30:00Z,44489,9302001,WEST CHEDABUCTO BAY,0,45.48687,-61.14100000000001,18,2021-10-19T04:30:00.000Z,110,2021-10-19T04:35:04.426Z,45.48717,100,-61.14125,100,10.6,100,14.8,100,12.5,100,0.0,100,3.6,100,,-1,,-1,,-1,,-1,,-1,,-1,,-1,,-1,1000.1,100,25.2,100,261,100,29.5,100,5,100,2,1,0.4,1,1000.1,1,1000.1,100,1000.2,100,25.2,100,24.8,100,261,100,264,100,29.5,100,28.8,100
2021-10-19T04:40:00Z,44489,9302001,WEST CHEDABUCTO BAY,0,45.48687,-61.14100000000001,18,2021-10-19T04:40:00.000Z,110,2021-10-19T04:44:03.451Z,45.48718,100,-61.14127,100,10.6,100,14.8,100,12.5,100,0.0,100,3.6,100,,-1,,-1,,-1,,-1,,-1,,-1,,-1,,-1,1000.2,100,25.9,100,259,100,30.6,100,5,100,3,1,0.3,1,1000.2,1,1000.2,100,1000.2,100,25.9,100,25.2,100,259,100,263,100,30.6,100,30.2,100
2021-10-19T04:50:00Z,44489,9302001,WEST CHEDABUCTO BAY,0,45.48687,-61.14100000000001,18,2021-10-19T04:50:00.000Z,110,2021-10-19T04:53:02.758Z,45.48718,100,-61.14125,100,10.4,100,14.8,100,12.5,100,0.0,100,3.6,100,,-1,,-1,,-1,,-1,,-1,,-1,,-1,,-1,1000.3,100,25.6,100,255,100,33.5,100,5,100,3,1,0.4,1,1000.3,1,1000.3,100,1000.3,100,25.6,100,24.8,100,255,100,259,100,33.5,100,33.1,100
2021-10-19T05:00:00Z,44489,9302001,WEST CHEDABUCTO BAY,0,45.48687,-61.14100000000001,18,2021-10-19T05:00:00.000Z,108,2021-10-19T05:03:03.897Z,45.48717,100,-61.14127,100,10.3,100,14.8,100,12.5,100,0.0,100,3.6,100,0.3,100,0.9,100,4.6,100,0.5,100,0.6,100,5.3,100,3.4,100,8.0,100,1000.3,100,26.6,100,256,100,33.1,100,5,100,3,1,0.4,1,1000.3,1,1000.3,100,1000.3,100,26.6,100,25.9,100,256,100,260,100,33.1,100,31.7,100
2021-10-19T05:10:00Z,44489,9302001,WEST CHEDABUCTO BAY,0,45.48687,-61.14100000000001,18,2021-10-19T05:10:00.000Z,110,2021-10-19T05:16:11.645Z,45.48718,100,-61.14127,100,10.5,100,14.8,100,12.5,100,0.0,100,3.6,100,,-1,,-1,,-1,,-1,,-1,,-1,,-1,,-1,1000.4,100,26.6,100,256,100,32.4,100,5,100,3,1,0.5,1,1000.4,1,1000.4,100,1000.4,100,26.6,100,25.9,100,256,100,260,100,32.4,100,31.7,100
2021-10-19T05:20:00Z,44489,9302001,WEST CHEDABUCTO BAY,0,45.48687,-61.14100000000001,18,2021-10-19T05:20:00.000Z,110,2021-10-19T05:23:08.911Z,45.48718,100,-61.14127,100,10.3,100,14.8,100,12.5,100,0.0,100,3.6,100,,-1,,-1,,-1,,-1,,-1,,-1,,-1,,-1,1000.4,100,27.7,100,253,100,33.8,100,5,100,3,1,0.5,1,1000.4,1,1000.4,100,1000.4,100,27.7,100,27.0,100,253,100,257,100,33.8,100,33.5,100
2021-10-19T05:30:00Z,44489,9302001,WEST CHEDABUCTO BAY,0,45.48687,-61.14100000000001,18,2021-10-19T05:30:00.000Z,110,2021-10-19T05:34:20.722Z,45.4872,100,-61.14127,100,10.3,100,14.8,100,12.5,100,0.0,100,3.6,100,,-1,,-1,,-1,,-1,,-1,,-1,,-1,,-1,1000.4,100,28.1,100,255,100,32.4,100,5,100,3,1,0.4,1,1000.4,1,1000.4,100,1000.4,100,28.1,100,27.4,100,255,100,259,100,32.4,100,32.4,100
2021-10-19T05:40:00Z,44489,9302001,WEST CHEDABUCTO BAY,0,45.48687,-61.14100000000001,18,2021-10-19T05:40:00.000Z,110,2021-10-19T05:44:25.323Z,45.48718,100,-61.14127,100,10.2,100,14.8,100,12.5,100,0.0,100,3.6,100,,-1,,-1,,-1,,-1,,-1,,-1,,-1,,-1,1000.4,100,28.1,100,255,100,33.1,100,5,100,3,1,0.5,1,1000.4,1,1000.4,100,1000.5,100,28.1,100,27.4,100,255,100,259,100,33.1,100,32.0,100
2021-10-19T05:50:00Z,44489,9302001,WEST CHEDABUCTO BAY,0,45.48687,-61.14100000000001,18,2021-10-19T05:50:00.000Z,110,2021-10-19T05:54:22.574Z,45.48718,100,-61.14127,100,10.1,100,14.8,100,12.5,100,0.0,100,3.6,100,,-1,,-1,,-1,,-1,,-1,,-1,,-1,,-1,1000.5,100,24.5,100,257,100,28.8,100,5,100,3,1,0.6,1,1000.5,1,1000.5,100,1000.5,100,24.5,100,23.8,100,257,100,261,100,28.8,100,28.4,100
2021-10-19T06:00:00Z,44489,9302001,WEST CHEDABUCTO BAY,0,45.48687,-61.14100000000001,18,2021-10-19T06:00:00.000Z,108,2021-10-19T06:03:24.365Z,45.48717,100,-61.14127,100,10.2,100,14.8,100,12.5,100,0.0,100,3.6,100,0.3,100,0.8,100,4.5,100,0.5,100,0.7,100,5.1,100,3.2,100,8.0,100,1000.5,100,25.6,100,260,100,29.9,100,5,100,3,1,0.6,1,1000.5,1,1000.5,100,1000.5,100,25.6,100,24.8,100,260,100,265,100,29.9,100,29.9,100
2021-10-19T06:10:00Z,44489,9302001,WEST CHEDABUCTO BAY,0,45.48687,-61.14100000000001,18,2021-10-19T06:10:00.000Z,110,2021-10-19T06:21:21.186Z,45.48718,100,-61.14125,100,10.1,100,14.8,100,12.5,100,0.0,100,3.6,100,,-1,,-1,,-1,,-1,,-1,,-1,,-1,,-1,1000.5,100,26.6,100,265,100,32.4,100,5,100,2,1,0.5,1,1000.5,1,1000.5,100,1000.5,100,26.6,100,26.3,100,265,100,269,100,32.4,100,31.7,100
2021-10-19T06:20:00Z,44489,9302001,WEST CHEDABUCTO BAY,0,45.48687,-61.14100000000001,18,2021-10-19T06:20:00.000Z,110,2021-10-19T06:24:31.567Z,45.48715,100,-61.14125,100,10.0,100,14.8,100,12.5,100,0.0,100,3.6,100,,-1,,-1,,-1,,-1,,-1,,-1,,-1,,-1,1000.4,100,26.6,100,265,100,31.7,100,5,100,1,1,0.4,1,1000.4,1,1000.4,100,1000.4,100,26.6,100,25.9,100,265,100,269,100,31.7,100,31.3,100
2021-10-19T06:30:00Z,44489,9302001,WEST CHEDABUCTO BAY,0,45.48687,-61.14100000000001,18,2021-10-19T06:30:00.000Z,110,2021-10-19T06:33:24.248Z,45.48717,100,-61.14127,100,10.1,100,14.8,100,12.5,100,0.0,100,3.6,100,,-1,,-1,,-1,,-1,,-1,,-1,,-1,,-1,1000.4,100,24.8,100,263,100,29.2,100,5,100,1,1,0.5,1,1000.4,1,1000.4,100,1000.4,100,24.8,100,24.5,100,263,100,267,100,29.2,100,28.8,100
2021-10-19T06:40:00Z,44489,9302001,WEST CHEDABUCTO BAY,0,45.48687,-61.14100000000001,18,2021-10-19T06:40:00.000Z,110,2021-10-19T06:44:34.084Z,45.48715,100,-61.14127,100,10.0,100,14.8,100,12.4,100,0.0,100,3.6,100,,-1,,-1,,-1,,-1,,-1,,-1,,-1,,-1,1000.4,100,23.4,100,261,100,27.0,100,5,100,1,1,0.5,1,1000.4,1,1000.4,100,1000.5,100,23.4,100,22.7,100,261,100,265,100,27.0,100,26.6,100
2021-10-19T06:50:00Z,44489,9302001,WEST CHEDABUCTO BAY,0,45.48687,-61.14100000000001,18,2021-10-19T06:50:00.000Z,110,2021-10-19T06:52:37.188Z,45.48717,100,-61.14127,100,10.0,100,14.8,100,12.4,100,0.0,100,3.6,100,,-1,,-1,,-1,,-1,,-1,,-1,,-1,,-1,1000.4,100,24.5,100,259,100,29.2,100,5,100,0,1,0.4,1,1000.4,1,1000.4,100,1000.4,100,24.5,100,23.8,100,259,100,264,100,29.2,100,28.8,100
2021-10-19T07:00:00Z,44489,9302001,WEST CHEDABUCTO BAY,0,45.48687,-61.14100000000001,18,2021-10-19T07:00:00.000Z,108,2021-10-19T07:03:42.408Z,45.48718,100,-61.14127,100,9.9,100,14.8,100,12.4,100,0.0,100,3.6,100,0.3,100,1.0,100,4.3,100,0.5,100,0.6,100,5.3,100,3.3,100,7.7,100,1000.5,100,23.0,100,260,100,27.7,100,5,100,0,1,0.4,1,1000.5,1,1000.5,100,1000.5,100,23.0,100,22.3,100,260,100,264,100,27.7,100,27.0,100
2021-10-19T07:10:00Z,44489,9302001,WEST CHEDABUCTO BAY,0,45.48687,-61.14100000000001,18,2021-10-19T07:10:00.000Z,110,2021-10-19T07:16:42.172Z,45.48718,100,-61.14125,100,9.7,100,14.8,100,12.5,100,0.0,100,3.6,100,,-1,,-1,,-1,,-1,,-1,,-1,,-1,,-1,1000.6,100,23.4,100,260,100,28.1,100,5,100,1,1,0.5,1,1000.6,1,1000.6,100,1000.6,100,23.4,100,23.0,100,260,100,264,100,28.1,100,27.0,100
2021-10-19T07:20:00Z,44489,9302001,WEST CHEDABUCTO BAY,0,45.48687,-61.14100000000001,18,2021-10-19T07:20:00.000Z,110,2021-10-19T07:22:41.988Z,45.48718,100,-61.14127,100,9.8,100,14.8,100,12.5,100,0.0,100,3.6,100,,-1,,-1,,-1,,-1,,-1,,-1,,-1,,-1,1000.7,100,23.4,100,260,100,29.5,100,5,100,2,1,0.5,1,1000.7,1,1000.7,100,1000.7,100,23.4,100,22.7,100,260,100,264,100,29.5,100,29.2,100
2021-10-19T07:30:00Z,44489,9302001,WEST CHEDABUCTO BAY,0,45.48687,-61.14100000000001,18,2021-10-19T07:30:00.000Z,110,2021-10-19T07:32:45.184Z,45.48717,100,-61.14125,100,9.6,100,14.8,100,12.4,100,0.0,100,3.6,100,,-1,,-1,,-1,,-1,,-1,,-1,,-1,,-1,1000.7,100,22.0,100,271,100,25.2,100,5,100,2,1,0.5,1,1000.7,1,1000.7,100,1000.7,100,22.0,100,21.2,100,271,100,275,100,25.2,100,25.2,100
2021-10-19T07:40:00Z,44489,9302001,WEST CHEDABUCTO BAY,0,45.48687,-61.14100000000001,18,2021-10-19T07:40:00.000Z,110,2021-10-19T07:43:47.131Z,45.48717,100,-61.14125,100,9.2,100,14.8,100,12.4,100,0.0,100,3.6,100,,-1,,-1,,-1,,-1,,-1,,-1,,-1,,-1,1000.7,100,20.9,100,270,100,25.2,100,5,100,2,1,0.6,1,1000.7,1,1000.7,100,1000.7,100,20.9,100,20.5,100,270,100,274,100,25.2,100,24.8,100
2021-10-19T07:50:00Z,44489,9302001,WEST CHEDABUCTO BAY,0,45.48687,-61.14100000000001,18,2021-10-19T07:50:00.000Z,110,2021-10-19T07:52:49.459Z,45.48715,100,-61.14127,100,9.1,100,14.8,100,12.4,100,0.0,100,3.6,100,,-1,,-1,,-1,,-1,,-1,,-1,,-1,,-1,1000.7,100,20.2,100,266,100,23.4,100,5,100,3,1,0.5,1,1000.7,1,1000.7,100,1000.7,100,20.2,100,19.8,100,266,100,270,100,23.4,100,23.0,100
2021-10-19T08:00:00Z,44489,9302001,WEST CHEDABUCTO BAY,0,45.48687,-61.14100000000001,18,2021-10-19T08:00:00.000Z,108,2021-10-19T08:02:49.067Z,45.48717,100,-61.14125,100,9.1,100,14.8,100,12.4,100,0.0,100,3.6,100,0.3,100,0.7,100,5.2,100,0.5,100,0.6,100,6.3,100,3.6,100,7.4,100,1000.8,100,20.2,100,261,100,24.5,100,5,100,3,1,0.5,1,1000.8,1,1000.8,100,1000.8,100,20.2,100,20.2,100,261,100,265,100,24.5,100,24.5,100
2021-10-19T08:10:00Z,44489,9302001,WEST CHEDABUCTO BAY,0,45.48687,-61.14100000000001,18,2021-10-19T08:10:00.000Z,110,2021-10-19T08:15:55.998Z,45.48717,100,-61.14125,100,9.0,100,14.8,100,12.4,100,0.0,100,3.6,100,,-1,,-1,,-1,,-1,,-1,,-1,,-1,,-1,1000.9,100,21.2,100,262,100,25.9,100,5,100,3,1,0.5,1,1000.9,1,1000.9,100,1000.9,100,21.2,100,20.9,100,262,100,265,100,25.9,100,24.5,100
2021-10-19T08:20:00Z,44489,9302001,WEST CHEDABUCTO BAY,0,45.48687,-61.14100000000001,18,2021-10-19T08:20:00.000Z,110,2021-10-19T08:25:02.951Z,45.48717,100,-61.14123000000001,100,9.0,100,14.7,100,12.4,100,0.0,100,3.6,100,,-1,,-1,,-1,,-1,,-1,,-1,,-1,,-1,1001.1,100,21.2,100,268,100,26.6,100,5,100,3,1,0.7,1,1001.1,1,1001.1,100,1001.1,100,21.2,100,20.9,100,268,100,272,100,26.6,100,26.3,100
2021-10-19T08:30:00Z,44489,9302001,WEST CHEDABUCTO BAY,0,45.48687,-61.14100000000001,18,2021-10-19T08:30:00.000Z,110,2021-10-19T08:33:09.040Z,45.48715,100,-61.14125,100,9.2,100,14.7,100,12.4,100,0.0,100,3.6,100,,-1,,-1,,-1,,-1,,-1,,-1,,-1,,-1,1001.2,100,23.0,100,270,100,27.4,100,5,100,3,1,0.8,1,1001.2,1,1001.2,100,1001.2,100,23.0,100,22.7,100,270,100,274,100,27.4,100,27.4,100
2021-10-19T08:40:00Z,44489,9302001,WEST CHEDABUCTO BAY,0,45.48687,-61.14100000000001,18,2021-10-19T08:40:00.000Z,110,2021-10-19T08:43:05.281Z,45.48715,100,-61.14122,100,9.2,100,14.7,100,12.4,100,0.0,100,3.6,100,,-1,,-1,,-1,,-1,,-1,,-1,,-1,,-1,1001.2,100,22.3,100,265,100,27.4,100,5,100,3,1,0.8,1,1001.2,1,1001.2,100,1001.3,100,22.3,100,22.0,100,265,100,269,100,27.4,100,27.4,100
2021-10-19T08:50:00Z,44489,9302001,WEST CHEDABUCTO BAY,0,45.48687,-61.14100000000001,18,2021-10-19T08:50:00.000Z,110,2021-10-19T08:53:06.043Z,45.48715,100,-61.1412,100,9.1,100,14.7,100,12.4,100,0.0,100,3.6,100,,-1,,-1,,-1,,-1,,-1,,-1,,-1,,-1,1001.2,100,23.0,100,266,100,29.5,100,5,100,3,1,0.8,1,1001.2,1,1001.2,100,1001.3,100,23.0,100,22.7,100,266,100,270,100,29.5,100,28.8,100
2021-10-19T09:00:00Z,44489,9302001,WEST CHEDABUCTO BAY,0,45.48687,-61.14100000000001,18,2021-10-19T09:00:00.000Z,108,2021-10-19T09:03:03.989Z,45.48715,100,-61.14118000000001,100,8.9,100,14.7,100,12.4,100,0.0,100,3.6,100,0.3,100,0.7,100,4.7,100,0.5,100,0.6,100,5.7,100,3.4,100,7.7,100,1001.4,100,23.0,100,273,100,28.1,100,5,100,3,1,0.8,1,1001.4,1,1001.4,100,1001.4,100,23.0,100,22.7,100,273,100,277,100,28.1,100,28.4,100
2021-10-19T09:10:00Z,44489,9302001,WEST CHEDABUCTO BAY,0,45.48687,-61.14100000000001,18,2021-10-19T09:10:00.000Z,110,2021-10-19T09:18:05.636Z,45.48715,100,-61.14123000000001,100,8.6,100,14.7,100,12.4,100,0.0,100,3.6,100,,-1,,-1,,-1,,-1,,-1,,-1,,-1,,-1,1001.5,100,20.2,100,271,100,24.5,100,5,100,3,1,1.0,1,1001.5,1,1001.5,100,1001.5,100,20.2,100,19.4,100,271,100,275,100,24.5,100,24.1,100
2021-10-19T09:20:00Z,44489,9302001,WEST CHEDABUCTO BAY,0,45.48687,-61.14100000000001,18,2021-10-19T09:20:00.000Z,110,2021-10-19T09:24:12.004Z,45.48713,100,-61.141169999999995,100,8.5,100,14.7,100,12.4,100,0.0,100,3.6,100,,-1,,-1,,-1,,-1,,-1,,-1,,-1,,-1,1001.5,100,19.1,100,273,100,23.0,100,5,100,3,1,1.1,1,1001.5,1,1001.5,100,1001.5,100,19.1,100,18.7,100,273,100,278,100,23.0,100,23.0,100